Vorticity
4 0 6 11 4 7 12 -12 -8 19 7 2 5 -14 13 8 -6 8 2 3 3 2 4 1 5 5 6 5 6 5 6 7 7 4 4 4 4 4 5 6 6 6 6 6 6 5 6 6 5
6 6 1 -4 6 7 -5 -5 23 4 5 12 2 1 -1 -20 -8 9 2 -0 5 4 3 4 3 6 6 6 6 5 5 6 6 5 5 3 4 4 5 5 6 6 7 7 6 6 6 6 6
8 7 0 15 3 -1 18 7 -20 10 19 11 12 12 6 2 26 -6 2 -0 3 4 8 4 4 4 5 7 6 7 6 5 6 4 4 4 4 4 4 5 6 6 7 6 6 6 6 6 5
9 7 10 3 -1 11 21 4 18 -4 27 14 7 -15 -5 -26 -1 3 7 3 4 2 4 8 4 5 6 5 6 7 7 6 6 4 4 4 4 4 4 5 6 6 6 6 6 5 5 5 5
9 1 6 3 13 7 7 15 -5 16 -21 20 9 3 34 19 7 -5 2 0 2 5 1 5 5 5 6 4 6 5 8 7 6 5 4 4 3 4 5 5 5 6 7 6 6 5 5 5 5
13 8 4 10 10 3 1 1 14 9 -5 7 7 12 -14 -32 26 1 -0 5 2 3 4 2 3 3 4 5 5 5 6 7 6 5 4 4 3 4 5 6 7 6 7 6 6 5 5 6 6
9 5 9 3 3 11 -10 1 -3 2 6 -6 3 -2 15 8 -10 7 10 -1 -0 3 3 2 2 4 4 3 5 4 6 6 6 4 4 3 4 4 5 5 6 7 6 7 5 6 6 6 6
8 9 5 10 2 10 0 10 7 17 9 4 -2 18 -6 -7 33 15 -4 6 6 7 0 4 4 5 5 4 3 4 5 5 6 4 4 3 4 4 4 4 5 6 6 6 6 6 7 6 5
-3 12 6 11 4 2 5 6 -4 -1 14 6 -0 4 2 -6 15 29 29 1 8 4 5 3 -0 2 4 5 5 3 4 5 5 4 4 3 3 3 3 4 4 5 6 6 5 6 6 5 5
-1 19 4 5 10 7 8 4 11 -2 5 10 3 1 11 4 4 6 -6 8 -5 2 3 4 2 0 2 4 4 4 4 5 6 4 4 3 3 4 3 3 4 4 4 5 4 4 5 5 4
7 37 9 7 5 9 3 7 -5 7 3 -1 17 5 1 -6 7 -7 1 38 18 10 4 3 2 2 2 4 5 5 2 6 7 5 4 4 3 3 3 4 4 4 4 4 4 4 4 4 4
-10 -7 19 6 12 7 7 3 -4 0 7 4 6 11 2 12 -8 20 -8 -13 39 -9 -1 5 1 1 2 4 8 10 5 5 8 7 6 4 2 3 4 4 4 4 4 4 4 4 4 4 4
-2 59 2 26 10 10 4 3 2 -1 2 13 2 18 1 3 4 2 6 -37 21 16 2 1 3 2 4 3 5 8 6 4 6 10 7 6 5 3 3 4 4 4 5 5 5 4 5 4 4
-13 -3 17 16 13 3 9 2 0 0 11 -3 11 17 18 0 8 2 3 -1 -12 21 6 -16 10 4 -1 2 6 7 8 5 7 6 8 6 6 4 3 3 3 4 5 5 5 5 4 4 4
16 -29 16 51 3 66 9 12 7 -1 -3 -5 2 7 14 22 -3 6 4 15 1 -9 14 4 10 9 -1 4 6 6 9 6 5 7 7 5 6 4 3 3 3 4 6 4 4 4 5 7 5
-13 6 -9 23 19 -11 9 14 4 3 -4 -2 8 3 10 -5 30 -1 12 -4 0 3 4 -4 -1 -1 4 2 1 4 6 7 4 8 5 8 4 4 4 2 4 5 5 3 3 5 3 4 5
15 -19 9 43 -28 39 22 -5 17 32 9 21 2 -1 9 2 13 29 -11 10 6 4 -3 4 2 2 -1 -0 1 2 6 4 7 6 6 6 5 5 4 4 4 4 4 3 4 5 4 5 5
27 -6 33 15 -43 7 15 28 -36 12 12 14 11 20 7 11 -0 21 15 13 -9 10 10 5 -0 3 4 5 6 5 5 6 7 7 6 7 5 6 7 5 4 4 5 4 3 4 2 3 5
1 26 5 16 27 44 -27 8 3 -1 -30 -13 3 -10 38 -3 15 -5 6 -2 17 5 -4 4 14 5 4 6 6 6 5 5 7 6 7 6 5 8 9 7 5 4 4 3 4 4 1 3 4
-0 1 16 -5 -8 -9 25 -1 43 23 21 10 -8 14 7 9 14 11 5 -1 11 14 12 2 4 5 7 6 4 7 6 8 7 5 7 -1 -7 20 11 3 5 4 4 3 5 3 0 1 4
7 5 33 -13 26 -23 28 29 -18 -16 8 -14 3 9 5 36 -8 4 12 15 11 -1 5 12 16 -10 10 8 9 8 5 8 6 8 8 6 6 17 -7 42 -15 -10 -6 -2 -1 5 6 8 6
31 11 7 1 32 13 -0 13 29 22 -1 9 11 -1 -2 5 28 12 8 15 22 21 12 2 1 22 13 -12 2 -7 3 8 9 10 9 5 2 2 4 -1 17 32 7 -7 4 6 4 1 7
42 4 32 1 18 10 35 22 38 11 12 2 4 5 9 6 17 19 -1 -12 -5 7 25 8 1 -2 7 32 7 -8 37 -14 10 6 4 2 5 2 5 3 3 3 1 6 9 -2 3 11 6
8 12 22 9 -27 4 5 12 20 31 28 9 -1 17 17 24 12 24 16 19 8 -5 5 2 10 -2 -1 -1 2 11 15 -4 8 -6 -13 6 -3 9 -3 -3 2 2 5 6 2 7 11 10 12
15 22 41 34 15 9 -18 -4 -0 -0 4 16 15 28 32 18 17 6 12 18 23 16 10 5 5 6 11 1 3 3 4 0 7 -1 5 6 -8 7 16 1 12 8 12 5 8 8 8 11 13
-1 -7 -2 -31 -9 -7 17 3 3 5 1 1 2 1 -1 2 16 8 30 17 13 1 14 16 25 16 17 9 8 5 4 1 7 0 13 1 36 -6 8 15 1 23 9 7 11 7 13 9 8
15 10 13 18 19 18 11 6 13 12 8 15 23 26 11 15 10 11 3 4 15 -2 1 5 6 12 25 14 10 10 12 9 3 16 16 21 -5 4 12 -0 8 4 8 9 8 8 7 8 10
19 17 5 3 12 10 6 4 0 4 7 6 7 10 10 9 8 9 14 13 17 13 10 10 8 8 6 12 25 24 12 9 -1 3 11 7 1 15 -1 6 1 4 8 6 6 10 14 12 9
6 14 20 15 7 10 9 6 3 13 10 8 7 6 7 7 9 10 15 23 22 8 10 13 15 10 8 11 5 8 10 1 2 11 7 14 12 -0 9 9 4 -10 11 5 5 8 6 6 8
4 8 10 10 13 11 15 24 12 12 15 8 5 2 2 4 9 11 12 9 8 20 29 10 8 5 14 11 11 12 6 17 7 14 29 26 25 30 12 4 14 9 19 3 6 4 5 6 6
Height
5778 5783 5789 5795 5800 5809 5817 5826 5828 5836 5841 5846 5852 5857 5862 5866 5867 5879 5881 5883 5887 5889 5892 5894 5896 5898 5900 5902 5903 5905 5906 5907 5907 5907 5907 5907 5907 5907 5907 5907 5907 5906 5905 5904 5903 5902 5900 5899 5898
5770 5777 5783 5786 5792 5800 5814 5821 5820 5828 5838 5843 5848 5852 5858 5860 5864 5873 5876 5879 5883 5886 5889 5892 5894 5897 5899 5900 5901 5903 5904 5905 5906 5906 5907 5906 5906 5906 5906 5906 5905 5905 5903 5903 5902 5901 5899 5898 5897
5761 5767 5773 5778 5788 5797 5813 5813 5822 5824 5831 5832 5844 5848 5854 5858 5862 5869 5873 5876 5880 5884 5886 5889 5892 5895 5897 5898 5899 5900 5902 5903 5905 5905 5905 5905 5905 5905 5905 5904 5904 5903 5902 5901 5900 5899 5898 5897 5896
5752 5759 5764 5770 5786 5801 5811 5811 5809 5813 5820 5833 5840 5847 5850 5853 5859 5866 5868 5871 5876 5880 5883 5886 5890 5892 5894 5896 5897 5898 5899 5901 5902 5903 5904 5903 5903 5903 5903 5903 5902 5902 5901 5899 5898 5898 5897 5896 5895
5740 5748 5755 5767 5785 5796 5798 5794 5804 5809 5815 5820 5834 5842 5848 5849 5849 5858 5863 5869 5873 5877 5881 5884 5887 5889 5891 5893 5895 5896 5897 5898 5899 5901 5901 5902 5902 5902 5901 5900 5899 5899 5899 5898 5897 5896 5896 5894 5894
5733 5740 5748 5763 5782 5791 5780 5790 5801 5806 5809 5816 5824 5834 5840 5844 5844 5851 5857 5864 5868 5873 5877 5881 5884 5887 5888 5890 5893 5894 5895 5896 5897 5898 5900 5900 5900 5900 5899 5899 5898 5897 5896 5896 5895 5894 5894 5893 5892
5725 5733 5748 5764 5776 5780 5771 5791 5800 5803 5803 5810 5819 5825 5833 5840 5843 5848 5853 5858 5863 5868 5873 5878 5880 5883 5886 5888 5890 5892 5893 5894 5895 5896 5897 5898 5899 5898 5897 5897 5897 5896 5895 5894 5894 5893 5891 5891 5890
5723 5730 5741 5753 5763 5769 5776 5790 5793 5797 5800 5804 5813 5820 5828 5835 5836 5842 5847 5853 5857 5863 5867 5873 5877 5880 5883 5885 5887 5889 5890 5891 5892 5893 5894 5895 5896 5896 5896 5895 5895 5894 5893 5893 5892 5891 5890 5889 5888
5716 5721 5732 5746 5755 5763 5775 5784 5790 5792 5799 5804 5809 5819 5820 5824 5837 5841 5846 5848 5852 5858 5863 5867 5873 5876 5879 5881 5884 5886 5887 5889 5889 5890 5891 5892 5893 5894 5893 5893 5893 5892 5891 5890 5890 5889 5888 5887 5886
5706 5714 5731 5741 5747 5760 5772 5780 5783 5788 5794 5801 5805 5809 5815 5823 5830 5836 5841 5847 5848 5852 5857 5862 5867 5872 5875 5877 5879 5882 5884 5885 5887 5887 5888 5889 5890 5890 5891 5889 5890 5889 5888 5888 5886 5886 5885 5884 5883
5702 5712 5728 5735 5743 5755 5764 5770 5774 5783 5790 5800 5804 5808 5812 5816 5824 5829 5838 5839 5843 5846 5850 5855 5860 5866 5870 5873 5875 5878 5880 5881 5883 5884 5884 5885 5886 5886 5888 5888 5887 5887 5885 5884 5884 5882 5882 5881 5880
5697 5708 5720 5729 5737 5748 5756 5766 5769 5776 5787 5795 5801 5804 5808 5813 5820 5824 5830 5833 5835 5840 5844 5849 5855 5860 5864 5868 5871 5875 5875 5877 5878 5880 5880 5881 5882 5883 5883 5885 5885 5885 5884 5882 5881 5880 5879 5877 5877
5693 5705 5715 5725 5733 5743 5750 5759 5763 5773 5781 5787 5796 5800 5805 5808 5813 5818 5825 5830 5835 5837 5840 5846 5851 5856 5859 5862 5866 5868 5871 5871 5874 5875 5876 5877 5878 5880 5880 5881 5881 5880 5880 5879 5878 5877 5876 5875 5873
5689 5699 5712 5720 5730 5735 5744 5751 5759 5767 5774 5781 5790 5797 5800 5805 5809 5813 5817 5824 5829 5832 5836 5841 5846 5850 5854 5857 5862 5863 5866 5867 5869 5869 5871 5872 5873 5876 5876 5877 5876 5876 5876 5876 5875 5873 5873 5872 5870
5685 5693 5706 5710 5720 5723 5735 5745 5753 5761 5769 5775 5783 5790 5793 5799 5805 5808 5812 5816 5820 5823 5829 5835 5839 5844 5849 5852 5855 5858 5859 5862 5862 5864 5865 5867 5868 5870 5872 5872 5872 5872 5872 5871 5870 5870 5869 5868 5867
5677 5689 5697 5705 5712 5720 5728 5740 5746 5756 5764 5770 5777 5782 5789 5795 5800 5805 5809 5811 5816 5821 5827 5829 5833 5838 5843 5846 5849 5852 5853 5855 5857 5858 5859 5861 5863 5864 5865 5866 5867 5866 5866 5866 5865 5864 5863 5862 5861
5667 5677 5690 5700 5709 5714 5723 5733 5740 5749 5756 5762 5769 5774 5782 5788 5795 5800 5804 5808 5813 5817 5822 5826 5830 5834 5836 5841 5843 5846 5847 5849 5851 5852 5853 5854 5857 5858 5858 5860 5860 5860 5860 5860 5860 5859 5857 5856 5855
5674 5684 5693 5698 5705 5711 5720 5729 5734 5742 5751 5758 5764 5770 5777 5783 5787 5792 5797 5802 5807 5811 5817 5821 5823 5827 5830 5834 5837 5840 5841 5842 5844 5845 5847 5848 5849 5851 5852 5853 5853 5853 5853 5853 5852 5852 5851 5850 5848
5674 5683 5692 5702 5703 5712 5719 5722 5730 5739 5746 5755 5759 5765 5770 5776 5780 5784 5790 5796 5799 5805 5809 5812 5817 5820 5824 5826 5830 5831 5833 5835 5837 5838 5840 5840 5842 5843 5844 5845 5846 5846 5846 5845 5845 5844 5844 5842 5840
5669 5674 5682 5690 5697 5706 5713 5720 5725 5735 5744 5750 5754 5759 5766 5770 5771 5778 5783 5788 5793 5797 5802 5805 5810 5813 5816 5819 5822 5825 5826 5828 5829 5831 5832 5834 5834 5834 5835 5836 5837 5838 5838 5838 5837 5836 5836 5834 5833
5667 5679 5687 5694 5700 5703 5708 5716 5724 5733 5737 5741 5747 5754 5760 5763 5764 5771 5777 5781 5785 5790 5794 5798 5801 5806 5809 5813 5815 5818 5819 5820 5821 5823 5825 5826 5826 5826 5827 5827 5828 5828 5829 5829 5828 5827 5826 5825 5824
5670 5678 5683 5692 5696 5701 5705 5711 5719 5725 5731 5737 5742 5748 5753 5757 5760 5764 5771 5775 5779 5782 5786 5791 5794 5796 5799 5803 5806 5808 5809 5810 5812 5814 5816 5817 5817 5818 5818 5818 5818 5819 5820 5821 5819 5818 5817 5816 5814
5669 5677 5685 5689 5694 5701 5706 5712 5714 5720 5727 5733 5738 5741 5743 5746 5751 5756 5763 5770 5772 5774 5778 5782 5786 5787 5790 5791 5795 5795 5797 5800 5800 5803 5806 5808 5809 5810 5810 5810 5810 5810 5811 5810 5810 5808 5807 5805 5803
5669 5676 5683 5688 5693 5699 5704 5710 5715 5718 5723 5730 5734 5737 5738 5739 5742 5748 5754 5759 5764 5767 5769 5773 5777 5780 5782 5784 5787 5787 5790 5792 5793 5793 5795 5797 5798 5799 5801 5801 5800 5800 5799 5799 5798 5796 5795 5795 5793
5669 5675 5681 5684 5687 5695 5702 5708 5712 5717 5720 5724 5727 5730 5733 5736 5737 5740 5746 5749 5754 5758 5760 5763 5766 5769 5772 5774 5776 5777 5779 5780 5782 5783 5784 5786 5788 5789 5790 5789 5788 5788 5787 5787 5786 5785 5784 5783 5782
5669 5673 5677 5681 5688 5694 5699 5703 5708 5714 5717 5719 5723 5726 5729 5732 5733 5736 5739 5742 5745 5748 5749 5752 5754 5757 5761 5763 5765 5767 5768 5769 5771 5772 5772 5773 5775 5777 5776 5777 5777 5777 5776 5775 5775 5774 5773 5772 5771
5666 5671 5677 5681 5686 5692 5696 5700 5704 5708 5711 5714 5716 5718 5720 5724 5726 5728 5732 5734 5736 5738 5740 5743 5746 5748 5750 5752 5754 5756 5758 5759 5760 5760 5760 5761 5763 5763 5765 5765 5766 5765 5765 5764 5764 5763 5763 5762 5761
5665 5669 5672 5676 5682 5688 5690 5695 5699 5703 5705 5708 5711 5713 5714 5716 5718 5721 5724 5726 5727 5728 5729 5734 5737 5738 5740 5742 5743 5745 5747 5748 5748 5748 5749 5750 5751 5751 5751 5752 5752 5753 5753 5753 5752 5752 5751 5750 5749
5665 5667 5672 5676 5680 5682 5686 5690 5693 5698 5700 5702 5705 5707 5709 5711 5712 5713 5714 5717 5719 5721 5722 5723 5726 5728 5729 5731 5732 5733 5734 5735 5735 5735 5736 5737 5737 5737 5739 5738 5739 5740 5740 5739 5740 5739 5739 5740 5738
5664 5667 5670 5673 5677 5679 5681 5686 5689 5692 5695 5697 5699 5700 5702 5704 5705 5705 5707 5708 5710 5712 5713 5715 5717 5718 5718 5720 5722 5723 5723 5723 5723 5723 5724 5723 5722 5721 5722 5720 5722 5725 5724 5725 5727 5727 5727 5727 5726